,,Stat6,,Stat2,,Stat8,,Stat9,,Stat10,,Wind1,,Wind1,
time,status,PA1M_AVG,status,PR1M_SUM,status,RH1M_AVG,status,SR1M_AVG,status,TA1M_AVG,status,W1dAve1m,status,W1sAve1m,
2004-01-29, 00:00:00,VALID,916.342,VALID,0,VALID,98.5366,VALID,-0.0339617,VALID,18.6361,VALID,106,VALID,0.339134,
2004-01-29, 00:01:00,VALID,916.336,VALID,0,VALID,98.6066,VALID,-0.0169808,VALID,18.6456,VALID,106,VALID,0,
2004-01-29, 00:02:00,VALID,916.329,VALID,0,VALID,98.6142,VALID,-0.0509425,VALID,18.6458,VALID,106,VALID,0,
2004-01-29, 00:03:00,VALID,916.326,VALID,0,VALID,98.6396,VALID,-0.0849042,VALID,18.629,VALID,106,VALID,0.0840774,
2004-01-29, 00:04:00,VALID,916.319,VALID,0,VALID,98.6625,VALID,-0.0509425,VALID,18.6398,VALID,88,VALID,0.488758,
2004-01-29, 00:05:00,VALID,916.318,VALID,0,VALID,98.6918,VALID,-0.0849042,VALID,18.6133,VALID,52,VALID,0.684338,
2004-01-29, 00:06:00,VALID,916.302,VALID,0,VALID,98.688,VALID,-0.0509425,VALID,18.6041,VALID,51,VALID,0.716146,
2004-01-29, 00:07:00,VALID,916.297,VALID,0,VALID,98.749,VALID,-0.0339617,VALID,18.5676,VALID,51,VALID,0.531977,
2004-01-29, 00:08:00,VALID,916.286,VALID,0,VALID,98.8202,VALID,-0.0849042,VALID,18.5517,VALID,51,VALID,0.373326,
2004-01-29, 00:09:00,VALID,916.281,VALID,0,VALID,98.8393,VALID,-0.0679233,VALID,18.5462,VALID,51,VALID,0.506541,
2004-01-29, 00:10:00,VALID,916.27,VALID,0,VALID,98.852,VALID,-0.0679233,VALID,18.5264,VALID,54,VALID,0.545987,
2004-01-29, 00:11:00,VALID,916.27,VALID,0,VALID,98.9766,VALID,-0.0849042,VALID,18.5298,VALID,71,VALID,0.806055,
2004-01-29, 00:12:00,VALID,916.254,VALID,0,VALID,99.1445,VALID,-0.0679233,VALID,18.5199,VALID,79,VALID,0.915451,
2004-01-29, 00:13:00,VALID,916.245,VALID,0,VALID,99.2119,VALID,-0.0169808,VALID,18.5254,VALID,92,VALID,0.882631,
2004-01-29, 00:14:00,VALID,916.237,VALID,0,VALID,99.2093,VALID,0.0339617,VALID,18.5542,VALID,82,VALID,0.923874,
2004-01-29, 00:15:00,VALID,916.224,VALID,0,VALID,99.2042,VALID,0.0339617,VALID,18.5406,VALID,64,VALID,0.721591,
2004-01-29, 00:16:00,VALID,916.22,VALID,0,VALID,99.1966,VALID,0.0169808,VALID,18.5642,VALID,59,VALID,0.474564,
2004-01-29, 00:17:00,VALID,916.205,VALID,0,VALID,99.2182,VALID,0.0679233,VALID,18.5575,VALID,62,VALID,0.508013,
2004-01-29, 00:18:00,VALID,916.194,VALID,0,VALID,99.2335,VALID,0.0169808,VALID,18.5639,VALID,66,VALID,0.641352,
2004-01-29, 00:19:00,VALID,916.192,VALID,0,VALID,99.2831,VALID,0.0339617,VALID,18.5704,VALID,70,VALID,0.446289,
2004-01-29, 00:20:00,VALID,916.202,VALID,0,VALID,99.2691,VALID,0,VALID,18.584,VALID,72,VALID,0.542791,
2004-01-29, 00:21:00,VALID,916.208,VALID,0,VALID,99.2411,VALID,0.101885,VALID,18.5766,VALID,84,VALID,0.544444,
2004-01-29, 00:22:00,VALID,916.207,VALID,0,VALID,99.2131,VALID,0.0679233,VALID,18.5704,VALID,113,VALID,0.751999,
2004-01-29, 00:23:00,VALID,916.219,VALID,0,VALID,99.2284,VALID,0.0679233,VALID,18.5637,VALID,123,VALID,0.815407,
2004-01-29, 00:24:00,VALID,916.225,VALID,0,VALID,99.2309,VALID,0.0339617,VALID,18.5706,VALID,120,VALID,0.850446,
2004-01-29, 00:25:00,VALID,916.224,VALID,0,VALID,99.2309,VALID,0.0169808,VALID,18.5674,VALID,118,VALID,0.621548,
2004-01-29, 00:26:00,VALID,916.214,VALID,0,VALID,99.2258,VALID,0.0169808,VALID,18.5741,VALID,125,VALID,0.444444,
2004-01-29, 00:27:00,VALID,916.215,VALID,0,VALID,99.2475,VALID,0.0339617,VALID,18.5635,VALID,125,VALID,0.21147,
2004-01-29, 00:28:00,VALID,916.206,VALID,0,VALID,99.2716,VALID,0.0169808,VALID,18.5711,VALID,145,VALID,0.262355,
2004-01-29, 00:29:00,VALID,916.205,VALID,0,VALID,99.3021,VALID,-0.0849042,VALID,18.5745,VALID,155,VALID,0.00898437,
2004-01-29, 00:30:00,VALID,916.197,VALID,0,VALID,99.2983,VALID,-0.0509425,VALID,18.5882,VALID,155,VALID,0,
2004-01-29, 00:31:00,VALID,916.195,VALID,0,VALID,99.3174,VALID,-0.0509425,VALID,18.5847,VALID,155,VALID,0.188058,
2004-01-29, 00:32:00,VALID,916.192,VALID,0,VALID,99.3327,VALID,-0.0679233,VALID,18.578,VALID,208,VALID,0.318859,
2004-01-29, 00:33:00,VALID,916.188,VALID,0,VALID,99.3644,VALID,-0.0339617,VALID,18.5817,VALID,258,VALID,0.258371,
2004-01-29, 00:34:00,VALID,916.178,VALID,0,VALID,99.4001,VALID,-0.0679233,VALID,18.5686,VALID,258,VALID,0.213663,
2004-01-29, 00:35:00,VALID,916.18,VALID,0,VALID,99.4051,VALID,-0.0849042,VALID,18.5656,VALID,258,VALID,0.45827,
2004-01-29, 00:36:00,VALID,916.171,VALID,0,VALID,99.4077,VALID,-0.0509425,VALID,18.54,VALID,258,VALID,0.389509,
2004-01-29, 00:37:00,VALID,916.173,VALID,0,VALID,99.4903,VALID,-0.0339617,VALID,18.533,VALID,258,VALID,0.0465116,
2004-01-29, 00:38:00,VALID,916.18,VALID,0,VALID,99.5183,VALID,-0.0169808,VALID,18.5462,VALID,258,VALID,0,
2004-01-29, 00:39:00,VALID,916.184,VALID,0,VALID,99.5603,VALID,-0.0509425,VALID,18.5229,VALID,258,VALID,0,
2004-01-29, 00:40:00,VALID,916.184,VALID,0,VALID,99.5832,VALID,-0.0849042,VALID,18.5397,VALID,258,VALID,0,
2004-01-29, 00:41:00,VALID,916.185,VALID,0,VALID,99.5806,VALID,-0.0339617,VALID,18.5395,VALID,258,VALID,0.0109012,
2004-01-29, 00:42:00,VALID,916.174,VALID,0,VALID,99.6277,VALID,-0.0509425,VALID,18.5259,VALID,258,VALID,0,
2004-01-29, 00:43:00,VALID,916.175,VALID,0,VALID,99.6442,VALID,-0.0679233,VALID,18.539,VALID,258,VALID,0,
2004-01-29, 00:44:00,VALID,916.161,VALID,0,VALID,99.6773,VALID,-0.0509425,VALID,18.5494,VALID,258,VALID,0,
2004-01-29, 00:45:00,VALID,916.15,VALID,0,VALID,99.676,VALID,-0.0339617,VALID,18.5427,VALID,258,VALID,0,
2004-01-29, 00:46:00,VALID,916.133,VALID,0,VALID,99.6035,VALID,-0.0339617,VALID,18.5395,VALID,258,VALID,0,
2004-01-29, 00:47:00,VALID,916.112,VALID,0,VALID,99.6022,VALID,-0.0339617,VALID,18.5102,VALID,258,VALID,0,
2004-01-29, 00:48:00,VALID,916.108,VALID,0,VALID,99.6378,VALID,-0.0509425,VALID,18.4943,VALID,258,VALID,0,
2004-01-29, 00:49:00,VALID,916.113,VALID,0,VALID,99.6849,VALID,-0.0679233,VALID,18.4878,VALID,258,VALID,0.0267857,
2004-01-29, 00:50:00,VALID,916.094,VALID,0,VALID,99.6963,VALID,-0.0679233,VALID,18.4943,VALID,258,VALID,0.242006,
2004-01-29, 00:51:00,VALID,916.102,VALID,0.2,VALID,99.7243,VALID,-0.0339617,VALID,18.4881,VALID,193,VALID,0.483333,
2004-01-29, 00:52:00,VALID,916.089,VALID,0,VALID,99.7497,VALID,-0.0849042,VALID,18.4943,VALID,169,VALID,0.51399,
2004-01-29, 00:53:00,VALID,916.094,VALID,0,VALID,99.7548,VALID,-0.0679233,VALID,18.4814,VALID,155,VALID,0.550977,
2004-01-29, 00:54:00,VALID,916.072,VALID,0,VALID,99.7523,VALID,-0.0169808,VALID,18.4814,VALID,147,VALID,0.526101,
2004-01-29, 00:55:00,VALID,916.071,VALID,0,VALID,99.7663,VALID,-0.0169808,VALID,18.465,VALID,147,VALID,0.406977,
2004-01-29, 00:56:00,VALID,916.067,VALID,0,VALID,99.7866,VALID,-0.0169808,VALID,18.465,VALID,147,VALID,0.357143,
2004-01-29, 00:57:00,VALID,916.053,VALID,0,VALID,99.8159,VALID,-0.0509425,VALID,18.4719,VALID,147,VALID,0.313802,
2004-01-29, 00:58:00,VALID,916.052,VALID,0,VALID,99.826,VALID,-0.0169808,VALID,18.468,VALID,147,VALID,0.401867,
2004-01-29, 00:59:00,VALID,916.04,VALID,0,VALID,99.8451,VALID,-0.0169808,VALID,18.4717,VALID,147,VALID,0.262251,
2004-01-29, 01:00:01,VALID,916.026,VALID,0,VALID,99.8337,VALID,-0.0169808,VALID,18.4717,VALID,147,VALID,0.356399,
2004-01-29, 01:01:00,VALID,916.002,VALID,0,VALID,99.8324,VALID,-0.0849042,VALID,18.462,VALID,147,VALID,0.28869,
2004-01-29, 01:02:00,VALID,916.007,VALID,0,VALID,99.8324,VALID,-0.0679233,VALID,18.4588,VALID,138,VALID,0.499628,
2004-01-29, 01:03:00,VALID,915.996,VALID,0,VALID,99.854,VALID,-0.0339617,VALID,18.4459,VALID,123,VALID,0.642987,
2004-01-29, 01:04:00,VALID,915.987,VALID,0,VALID,99.8795,VALID,-0.0169808,VALID,18.4588,VALID,123,VALID,0.5,
2004-01-29, 01:05:00,VALID,915.978,VALID,0,VALID,99.9036,VALID,0,VALID,18.4588,VALID,121,VALID,0.555414,
2004-01-29, 01:06:00,VALID,915.982,VALID,0,VALID,99.8922,VALID,-0.0509425,VALID,18.4652,VALID,116,VALID,0.748402,
2004-01-29, 01:07:00,VALID,915.974,VALID,0,VALID,99.9087,VALID,-0.0679233,VALID,18.4657,VALID,115,VALID,0.936357,
2004-01-29, 01:08:01,VALID,915.964,VALID,0,VALID,99.8807,VALID,-0.0509425,VALID,18.459,VALID,106,VALID,0.909157,
2004-01-29, 01:09:00,VALID,915.956,VALID,0,VALID,99.8616,VALID,-0.0679233,VALID,18.4526,VALID,88,VALID,0.838778,
2004-01-29, 01:10:00,VALID,915.929,VALID,0,VALID,99.8413,VALID,-0.0679233,VALID,18.4392,VALID,90,VALID,0.70816,
2004-01-29, 01:11:00,VALID,915.917,VALID,0,VALID,99.7955,VALID,-0.0849042,VALID,18.4233,VALID,109,VALID,0.593229,
2004-01-29, 01:12:01,VALID,915.914,VALID,0,VALID,99.7485,VALID,-0.0679233,VALID,18.4074,VALID,107,VALID,0.651042,
2004-01-29, 01:13:00,VALID,915.896,VALID,0,VALID,99.7587,VALID,0,VALID,18.3977,VALID,88,VALID,0.641797,
2004-01-29, 01:14:00,VALID,915.884,VALID,0,VALID,99.7447,VALID,-0.0679233,VALID,18.3979,VALID,92,VALID,0.729167,
2004-01-29, 01:15:00,VALID,915.876,VALID,0,VALID,99.7294,VALID,-0.0509425,VALID,18.3882,VALID,92,VALID,0.595703,
2004-01-29, 01:16:01,VALID,915.864,VALID,0,VALID,99.7269,VALID,-0.0169808,VALID,18.3783,VALID,100,VALID,0.725472,
2004-01-29, 01:17:00,VALID,915.843,VALID,0,VALID,99.7065,VALID,-0.0339617,VALID,18.3684,VALID,99,VALID,0.867378,
2004-01-29, 01:18:00,VALID,915.845,VALID,0,VALID,99.6913,VALID,-0.0339617,VALID,18.3686,VALID,101,VALID,0.73544,
2004-01-29, 01:19:01,VALID,915.843,VALID,0,VALID,99.6735,VALID,-0.0679233,VALID,18.3686,VALID,106,VALID,0.743823,
2004-01-29, 01:20:00,VALID,915.824,VALID,0,VALID,99.6544,VALID,-0.0339617,VALID,18.3719,VALID,118,VALID,0.78995,
2004-01-29, 01:21:01,VALID,915.806,VALID,0,VALID,99.6506,VALID,-0.0849042,VALID,18.388,VALID,131,VALID,0.868862,
2004-01-29, 01:22:00,VALID,915.804,VALID,0,VALID,99.6239,VALID,-0.0849042,VALID,18.3915,VALID,134,VALID,1.03201,
2004-01-29, 01:23:01,VALID,915.789,VALID,0,VALID,99.6239,VALID,-0.0339617,VALID,18.4076,VALID,134,VALID,1.09566,
2004-01-29, 01:24:00,VALID,915.774,VALID,0,VALID,99.6061,VALID,0,VALID,18.4076,VALID,133,VALID,1.06607,
2004-01-29, 01:25:00,VALID,915.777,VALID,0,VALID,99.5552,VALID,-0.0509425,VALID,18.4044,VALID,126,VALID,0.786458,
2004-01-29, 01:26:00,VALID,915.763,VALID,0,VALID,99.5463,VALID,-0.0339617,VALID,18.3848,VALID,126,VALID,0.803943,
2004-01-29, 01:27:00,VALID,915.763,VALID,0,VALID,99.545,VALID,-0.0339617,VALID,18.388,VALID,123,VALID,0.887576,
2004-01-29, 01:28:01,VALID,915.754,VALID,0,VALID,99.5565,VALID,-0.0339617,VALID,18.3813,VALID,135,VALID,1.13114,
2004-01-29, 01:29:01,VALID,915.751,VALID,0,VALID,99.5781,VALID,0,VALID,18.3878,VALID,134,VALID,1.08959,
2004-01-29, 01:30:00,VALID,915.734,VALID,0,VALID,99.5704,VALID,0,VALID,18.3875,VALID,136,VALID,0.873935,
2004-01-29, 01:31:01,VALID,915.727,VALID,0,VALID,99.5539,VALID,-0.0509425,VALID,18.3942,VALID,136,VALID,0.819425,
2004-01-29, 01:32:01,VALID,915.708,VALID,0,VALID,99.5336,VALID,-0.0339617,VALID,18.3878,VALID,126,VALID,0.539648,
2004-01-29, 01:33:01,VALID,915.697,VALID,0,VALID,99.5031,VALID,-0.0509425,VALID,18.3778,VALID,121,VALID,0.858232,
2004-01-29, 01:34:01,VALID,915.672,VALID,0,VALID,99.4484,VALID,-0.0509425,VALID,18.3714,VALID,108,VALID,0.653764,
2004-01-29, 01:35:00,VALID,915.668,VALID,0,VALID,99.4369,VALID,-0.0509425,VALID,18.3682,VALID,124,VALID,0.959635,
2004-01-29, 01:36:01,VALID,915.668,VALID,0,VALID,99.4446,VALID,0,VALID,18.3652,VALID,131,VALID,1.15052,
2004-01-29, 01:37:01,VALID,915.655,VALID,0,VALID,99.4687,VALID,-0.0339617,VALID,18.3783,VALID,127,VALID,1.07813,
2004-01-29, 01:38:01,VALID,915.647,VALID,0,VALID,99.4471,VALID,-0.0509425,VALID,18.3781,VALID,132,VALID,1.09184,
2004-01-29, 01:39:00,VALID,915.643,VALID,0,VALID,99.4662,VALID,-0.0679233,VALID,18.3979,VALID,129,VALID,1.22887,
2004-01-29, 01:40:01,VALID,915.639,VALID,0,VALID,99.4611,VALID,-0.0339617,VALID,18.3977,VALID,128,VALID,1.18889,
2004-01-29, 01:41:00,VALID,915.627,VALID,0,VALID,99.4344,VALID,-0.0679233,VALID,18.3783,VALID,127,VALID,1.07976,
2004-01-29, 01:42:01,VALID,915.623,VALID,0,VALID,99.4204,VALID,-0.0679233,VALID,18.3751,VALID,125,VALID,1.0638,
2004-01-29, 01:43:00,VALID,915.604,VALID,0.2,VALID,99.4255,VALID,0,VALID,18.3617,VALID,125,VALID,1.19219,
2004-01-29, 01:44:01,VALID,915.593,VALID,0,VALID,99.4369,VALID,0.0339617,VALID,18.3506,VALID,132,VALID,1.0831,
2004-01-29, 01:45:00,VALID,915.577,VALID,0,VALID,99.4471,VALID,0.0509425,VALID,18.3576,VALID,130,VALID,1.31303,
2004-01-29, 01:46:00,VALID,915.559,VALID,0,VALID,99.4369,VALID,0.101885,VALID,18.3576,VALID,125,VALID,1.14453,
2004-01-29, 01:47:00,VALID,915.548,VALID,0,VALID,99.4484,VALID,0.0679233,VALID,18.3509,VALID,131,VALID,1.04778,
2004-01-29, 01:48:01,VALID,915.523,VALID,0,VALID,99.4408,VALID,0.0339617,VALID,18.3541,VALID,127,VALID,0.880859,
2004-01-29, 01:49:00,VALID,915.493,VALID,0,VALID,99.4229,VALID,0.101885,VALID,18.3407,VALID,123,VALID,0.282639,
2004-01-29, 01:50:00,VALID,915.473,VALID,0,VALID,99.414,VALID,0.0849042,VALID,18.3541,VALID,60,VALID,0.127858,
2004-01-29, 01:51:01,VALID,915.453,VALID,0,VALID,99.3861,VALID,0.0509425,VALID,18.3375,VALID,88,VALID,0.38299,
2004-01-29, 01:52:00,VALID,915.423,VALID,0,VALID,99.3746,VALID,0.0679233,VALID,18.338,VALID,61,VALID,0.456214,
2004-01-29, 01:53:01,VALID,915.414,VALID,0,VALID,99.3276,VALID,0.0339617,VALID,18.3246,VALID,107,VALID,0.620427,
2004-01-29, 01:54:00,VALID,915.389,VALID,0,VALID,99.2704,VALID,0.0849042,VALID,18.3214,VALID,103,VALID,0.501562,
2004-01-29, 01:55:00,VALID,915.36,VALID,0,VALID,99.2525,VALID,0.0849042,VALID,18.3151,VALID,109,VALID,0.628089,
2004-01-29, 01:56:01,VALID,915.346,VALID,0,VALID,99.2258,VALID,0.0849042,VALID,18.3154,VALID,111,VALID,0.702785,
2004-01-29, 01:57:01,VALID,915.322,VALID,0,VALID,99.1826,VALID,0.0679233,VALID,18.319,VALID,109,VALID,0.732777,
2004-01-29, 01:58:00,VALID,915.303,VALID,0,VALID,99.1724,VALID,0.0339617,VALID,18.3193,VALID,93,VALID,0.778832,
2004-01-29, 01:59:00,VALID,915.283,VALID,0,VALID,99.1419,VALID,-0.0679233,VALID,18.3237,VALID,99,VALID,0.682617,
2004-01-29, 02:00:00,VALID,915.261,VALID,0,VALID,99.1114,VALID,-0.0339617,VALID,18.3301,VALID,80,VALID,0.796535,
2004-01-29, 02:01:00,VALID,915.24,VALID,0,VALID,99.0834,VALID,-0.0339617,VALID,18.3336,VALID,99,VALID,0.706659,
2004-01-29, 02:02:00,VALID,915.221,VALID,0,VALID,99.0389,VALID,-0.0509425,VALID,18.3396,VALID,83,VALID,0.686198,
2004-01-29, 02:03:00,VALID,915.203,VALID,0,VALID,98.9537,VALID,-0.0509425,VALID,18.346,VALID,114,VALID,1.25781,
2004-01-29, 02:04:00,VALID,915.192,VALID,0,VALID,98.8673,VALID,-0.0169808,VALID,18.3456,VALID,93,VALID,0.853871,
2004-01-29, 02:05:01,VALID,915.185,VALID,0,VALID,98.8062,VALID,-0.0339617,VALID,18.3456,VALID,116,VALID,0.998438,
2004-01-29, 02:06:00,VALID,915.163,VALID,0,VALID,98.749,VALID,0,VALID,18.3553,VALID,116,VALID,1.38917,
2004-01-29, 02:07:00,VALID,915.157,VALID,0,VALID,98.6829,VALID,-0.0169808,VALID,18.3523,VALID,115,VALID,1.32013,
2004-01-29, 02:08:00,VALID,915.132,VALID,0,VALID,98.6371,VALID,-0.0169808,VALID,18.3555,VALID,116,VALID,1.29985,
2004-01-29, 02:09:00,VALID,915.112,VALID,0,VALID,98.6193,VALID,-0.0169808,VALID,18.3523,VALID,112,VALID,1.02567,
2004-01-29, 02:10:01,VALID,915.1,VALID,0,VALID,98.6333,VALID,-0.0509425,VALID,18.3525,VALID,76,VALID,0.748397,
2004-01-29, 02:11:00,VALID,915.103,VALID,0,VALID,98.6562,VALID,-0.0679233,VALID,18.3426,VALID,85,VALID,0.752604,
2004-01-29, 02:12:01,VALID,915.075,VALID,0,VALID,98.6282,VALID,-0.0339617,VALID,18.3396,VALID,76,VALID,0.666969,
2004-01-29, 02:13:01,VALID,915.066,VALID,0,VALID,98.6663,VALID,-0.0169808,VALID,18.329,VALID,70,VALID,0.724254,
2004-01-29, 02:14:00,VALID,915.048,VALID,0,VALID,98.7108,VALID,0,VALID,18.3156,VALID,86,VALID,0.823264,
2004-01-29, 02:15:01,VALID,915.028,VALID,0,VALID,98.7312,VALID,0,VALID,18.3193,VALID,54,VALID,0.889323,
2004-01-29, 02:16:00,VALID,915.02,VALID,0,VALID,98.7515,VALID,0.0169808,VALID,18.3096,VALID,40,VALID,0.94375,
2004-01-29, 02:17:00,VALID,914.997,VALID,0,VALID,98.763,VALID,0,VALID,18.2932,VALID,63,VALID,0.859375,
2004-01-29, 02:18:01,VALID,914.987,VALID,0,VALID,98.7859,VALID,0.0169808,VALID,18.2771,VALID,43,VALID,0.890104,
2004-01-29, 02:19:00,VALID,914.97,VALID,0,VALID,98.8494,VALID,0.0169808,VALID,18.2642,VALID,39,VALID,1.29583,
2004-01-29, 02:20:00,VALID,914.956,VALID,0,VALID,98.8965,VALID,0,VALID,18.2483,VALID,45,VALID,1.15885,
2004-01-29, 02:21:00,VALID,914.955,VALID,0,VALID,98.9296,VALID,0.0169808,VALID,18.2383,VALID,49,VALID,0.944618,
2004-01-29, 02:22:01,VALID,914.946,VALID,0,VALID,98.9741,VALID,0,VALID,18.2123,VALID,88,VALID,0.909702,
2004-01-29, 02:23:00,VALID,914.939,VALID,0,VALID,99.0249,VALID,0,VALID,18.2093,VALID,81,VALID,0.932594,
2004-01-29, 02:24:00,VALID,914.924,VALID,0,VALID,99.0822,VALID,0,VALID,18.2194,VALID,75,VALID,0.946057,
2004-01-29, 02:25:00,VALID,914.907,VALID,0,VALID,99.1114,VALID,0.0169808,VALID,18.2093,VALID,94,VALID,0.853609,
2004-01-29, 02:26:00,VALID,914.882,VALID,0,VALID,99.1178,VALID,0,VALID,18.2026,VALID,86,VALID,0.605382,
2004-01-29, 02:27:00,VALID,914.876,VALID,0,VALID,99.1228,VALID,0,VALID,18.2294,VALID,91,VALID,0.732617,
2004-01-29, 02:28:00,VALID,914.864,VALID,0,VALID,99.1318,VALID,0,VALID,18.2192,VALID,66,VALID,0.576079,
2004-01-29, 02:29:01,VALID,914.839,VALID,0,VALID,99.1674,VALID,0,VALID,18.2061,VALID,72,VALID,0.782738,
2004-01-29, 02:30:00,VALID,914.823,VALID,0,VALID,99.2093,VALID,0,VALID,18.219,VALID,111,VALID,1.10866,
2004-01-29, 02:31:00,VALID,914.805,VALID,0,VALID,99.2017,VALID,0.0169808,VALID,18.2091,VALID,116,VALID,1.39007,
2004-01-29, 02:32:00,VALID,914.799,VALID,0,VALID,99.161,VALID,0.0169808,VALID,18.2254,VALID,99,VALID,0.86684,
2004-01-29, 02:33:01,VALID,914.789,VALID,0,VALID,99.0936,VALID,0,VALID,18.2284,VALID,103,VALID,0.501215,
2004-01-29, 02:34:00,VALID,914.763,VALID,0,VALID,99.0618,VALID,0,VALID,18.2282,VALID,120,VALID,0.925868,
2004-01-29, 02:35:01,VALID,914.758,VALID,0,VALID,99.0224,VALID,0,VALID,18.2455,VALID,109,VALID,1.30766,
2004-01-29, 02:36:01,VALID,914.739,VALID,0,VALID,98.9525,VALID,0,VALID,18.2358,VALID,115,VALID,1.20879,
2004-01-29, 02:37:00,VALID,914.727,VALID,0,VALID,98.8914,VALID,0,VALID,18.245,VALID,130,VALID,1.1508,
2004-01-29, 02:38:01,VALID,914.7,VALID,0,VALID,98.8342,VALID,-0.0169808,VALID,18.2515,VALID,148,VALID,0.933203,
2004-01-29, 02:39:01,VALID,914.691,VALID,0,VALID,98.7732,VALID,0.0169808,VALID,18.2582,VALID,132,VALID,1.15485,
2004-01-29, 02:40:01,VALID,914.664,VALID,0,VALID,98.7121,VALID,0,VALID,18.2609,VALID,148,VALID,1.05015,
2004-01-29, 02:41:00,VALID,914.651,VALID,0,VALID,98.6473,VALID,0.0169808,VALID,18.2676,VALID,141,VALID,0.693314,
2004-01-29, 02:42:01,VALID,914.627,VALID,0,VALID,98.6193,VALID,0.0169808,VALID,18.2674,VALID,144,VALID,0.92016,
2004-01-29, 02:43:01,VALID,914.624,VALID,0,VALID,98.6142,VALID,0.0339617,VALID,18.2607,VALID,133,VALID,0.78125,
2004-01-29, 02:44:01,VALID,914.604,VALID,0,VALID,98.6066,VALID,0.0169808,VALID,18.2639,VALID,129,VALID,1.14695,
2004-01-29, 02:45:00,VALID,914.607,VALID,0,VALID,98.5697,VALID,0,VALID,18.2547,VALID,109,VALID,0.672408,
2004-01-29, 02:46:00,VALID,914.601,VALID,0,VALID,98.5544,VALID,0,VALID,18.2349,VALID,128,VALID,1.30545,
2004-01-29, 02:47:00,VALID,914.592,VALID,0,VALID,98.5672,VALID,0,VALID,18.2584,VALID,142,VALID,1.06548,
2004-01-29, 02:48:01,VALID,914.566,VALID,0,VALID,98.6269,VALID,0,VALID,18.2579,VALID,143,VALID,1.46294,
2004-01-29, 02:49:01,VALID,914.548,VALID,0,VALID,98.6422,VALID,0,VALID,18.2584,VALID,136,VALID,1.34497,
2004-01-29, 02:50:01,VALID,914.53,VALID,0,VALID,98.5989,VALID,0,VALID,18.2612,VALID,133,VALID,1.3316,
2004-01-29, 02:51:01,VALID,914.513,VALID,0,VALID,98.6053,VALID,-0.0169808,VALID,18.2515,VALID,139,VALID,1.50438,
2004-01-29, 02:52:00,VALID,914.489,VALID,0,VALID,98.6028,VALID,0.0169808,VALID,18.251,VALID,146,VALID,1.44438,
2004-01-29, 02:53:01,VALID,914.485,VALID,0,VALID,98.5989,VALID,0,VALID,18.2676,VALID,139,VALID,1.69699,
2004-01-29, 02:54:01,VALID,914.473,VALID,0,VALID,98.5239,VALID,0.0169808,VALID,18.278,VALID,139,VALID,1.47039,
2004-01-29, 02:55:01,VALID,914.492,VALID,0,VALID,98.4807,VALID,0.0339617,VALID,18.2642,VALID,139,VALID,1.45675,
2004-01-29, 02:56:01,VALID,914.493,VALID,0,VALID,98.4273,VALID,0,VALID,18.2704,VALID,144,VALID,1.3683,
2004-01-29, 02:57:01,VALID,914.501,VALID,0,VALID,98.3866,VALID,-0.0169808,VALID,18.2743,VALID,140,VALID,1.36028,
2004-01-29, 02:58:01,VALID,914.491,VALID,0,VALID,98.3319,VALID,0,VALID,18.2741,VALID,131,VALID,1.72098,
2004-01-29, 02:59:01,VALID,914.493,VALID,0,VALID,98.2531,VALID,-0.0169808,VALID,18.2808,VALID,123,VALID,1.30605,
2004-01-29, 03:00:00,VALID,914.499,VALID,0,VALID,98.1653,VALID,0,VALID,18.287,VALID,135,VALID,1.60042,
2004-01-29, 03:01:01,VALID,914.494,VALID,0,VALID,98.0903,VALID,0,VALID,18.2935,VALID,149,VALID,1.31641,
2004-01-29, 03:02:01,VALID,914.505,VALID,0,VALID,98.0127,VALID,0.0169808,VALID,18.3001,VALID,140,VALID,1.3641,
2004-01-29, 03:03:01,VALID,914.487,VALID,0,VALID,97.8932,VALID,0,VALID,18.3163,VALID,151,VALID,1.47422,
2004-01-29, 03:04:01,VALID,914.494,VALID,0,VALID,97.7851,VALID,0.0169808,VALID,18.3292,VALID,148,VALID,1.19699,
2004-01-29, 03:05:01,VALID,914.503,VALID,0,VALID,97.719,VALID,0.0339617,VALID,18.3357,VALID,143,VALID,1.02734,
2004-01-29, 03:06:01,VALID,914.508,VALID,0,VALID,97.6516,VALID,0.0339617,VALID,18.3255,VALID,153,VALID,1.13796,
2004-01-29, 03:07:01,VALID,914.524,VALID,0,VALID,97.6236,VALID,0.0169808,VALID,18.3292,VALID,170,VALID,0.691315,
2004-01-29, 03:08:01,VALID,914.528,VALID,0,VALID,97.6414,VALID,0.0169808,VALID,18.3128,VALID,146,VALID,0.537695,
2004-01-29, 03:09:01,VALID,914.534,VALID,0,VALID,97.6783,VALID,0,VALID,18.2967,VALID,168,VALID,1.01469,
2004-01-29, 03:10:01,VALID,914.551,VALID,0,VALID,97.7076,VALID,0,VALID,18.2868,VALID,147,VALID,1.50037,
2004-01-29, 03:11:01,VALID,914.554,VALID,0,VALID,97.7254,VALID,0,VALID,18.2872,VALID,149,VALID,1.11701,
2004-01-29, 03:12:01,VALID,914.568,VALID,0,VALID,97.7686,VALID,0.0169808,VALID,18.2778,VALID,143,VALID,0.469131,
2004-01-29, 03:13:01,VALID,914.584,VALID,0,VALID,97.8144,VALID,-0.0169808,VALID,18.2614,VALID,151,VALID,0.801781,
2004-01-29, 03:14:01,VALID,914.582,VALID,0,VALID,97.8792,VALID,-0.0169808,VALID,18.2494,VALID,166,VALID,1.01054,
2004-01-29, 03:15:01,VALID,914.588,VALID,0,VALID,97.9237,VALID,-0.0339617,VALID,18.2593,VALID,154,VALID,0.799679,
2004-01-29, 03:16:01,VALID,914.584,VALID,0,VALID,97.9771,VALID,-0.0169808,VALID,18.246,VALID,148,VALID,0.7375,
2004-01-29, 03:17:01,VALID,914.59,VALID,0,VALID,98.0369,VALID,-0.0169808,VALID,18.2425,VALID,154,VALID,0.455487,
2004-01-29, 03:18:01,VALID,914.58,VALID,0,VALID,98.0916,VALID,-0.0169808,VALID,18.2363,VALID,149,VALID,0.71946,
2004-01-29, 03:19:01,VALID,914.585,VALID,0,VALID,98.1323,VALID,-0.0339617,VALID,18.2298,VALID,139,VALID,0.499151,
2004-01-29, 03:20:01,VALID,914.577,VALID,0,VALID,98.1806,VALID,0,VALID,18.2169,VALID,133,VALID,0.825267,
2004-01-29, 03:21:01,VALID,914.576,VALID,0,VALID,98.2734,VALID,0,VALID,18.2035,VALID,149,VALID,1.05729,
2004-01-29, 03:22:01,VALID,914.577,VALID,0,VALID,98.3612,VALID,-0.0339617,VALID,18.2072,VALID,145,VALID,1.03208,
2004-01-29, 03:23:00,VALID,914.591,VALID,0,VALID,98.3968,VALID,-0.0169808,VALID,18.2079,VALID,142,VALID,0.948864,
2004-01-29, 03:24:00,VALID,914.592,VALID,0,VALID,98.4209,VALID,-0.0509425,VALID,18.1911,VALID,133,VALID,0.997396,
2004-01-29, 03:25:00,VALID,914.582,VALID,0,VALID,98.4565,VALID,-0.0169808,VALID,18.1708,VALID,138,VALID,0.840523,
2004-01-29, 03:26:00,VALID,914.594,VALID,0,VALID,98.5061,VALID,-0.0509425,VALID,18.1881,VALID,131,VALID,1.14826,
2004-01-29, 03:27:00,VALID,914.589,VALID,0,VALID,98.5468,VALID,-0.0169808,VALID,18.1978,VALID,133,VALID,1.42169,
2004-01-29, 03:28:00,VALID,914.58,VALID,0,VALID,98.5519,VALID,0,VALID,18.2042,VALID,137,VALID,1.67188,
2004-01-29, 03:29:00,VALID,914.582,VALID,0,VALID,98.5239,VALID,-0.0339617,VALID,18.2333,VALID,139,VALID,1.48533,
2004-01-29, 03:30:00,VALID,914.574,VALID,0,VALID,98.5201,VALID,-0.0169808,VALID,18.2395,VALID,129,VALID,1.74891,
2004-01-29, 03:31:00,VALID,914.559,VALID,0,VALID,98.3167,VALID,-0.0169808,VALID,18.2554,VALID,118,VALID,1.53431,
2004-01-29, 03:32:00,VALID,914.564,VALID,0,VALID,98.1526,VALID,-0.0169808,VALID,18.2812,VALID,129,VALID,1.4177,
2004-01-29, 03:33:00,VALID,914.557,VALID,0,VALID,98.0165,VALID,0,VALID,18.2877,VALID,125,VALID,1.60899,
2004-01-29, 03:34:00,VALID,914.561,VALID,0,VALID,97.8322,VALID,0.0169808,VALID,18.317,VALID,132,VALID,1.04088,